Wind_Speed
33 34 34 33 33 33 33 33 32 31 29 27 26 25 25 25 24 23 23 23 23 23 24 24 24 23 22 22 22 22 21 21 21 20 20 21 20 18 17 19 20 19 17 17 17 16 17 18 17 16 15 15 13 13 13 13 14 14 13 13 13 13 13 12 10 9 9 8 8 8 7 7 7 8 9 9 9 10 11 11 12 13 12 11 12
35 34 33 33 34 34 34 33 33 32 30 28 28 27 26 26 26 24 24 24 24 24 24 24 25 25 24 23 23 22 22 22 22 21 22 22 21 19 19 20 21 20 18 18 18 17 17 18 18 17 17 16 15 14 13 14 14 14 14 14 14 13 14 14 12 11 10 9 9 9 8 8 9 9 10 11 10 10 11 11 12 12 12 11 11
35 34 33 34 35 34 33 33 32 33 32 30 30 29 28 27 27 27 26 25 25 25 25 25 25 26 25 24 24 23 23 23 22 22 23 23 23 21 20 21 22 21 20 19 19 19 18 19 19 19 18 18 17 16 14 14 14 15 15 15 14 14 14 15 14 12 11 10 9 9 9 9 9 9 10 11 11 11 11 12 12 12 12 12 10
34 34 34 34 34 34 33 33 33 33 33 32 31 31 29 28 28 29 28 27 26 26 26 26 26 26 26 25 25 24 24 23 23 23 24 25 25 23 22 22 22 22 21 21 20 20 20 19 20 20 19 18 18 17 16 16 15 15 15 15 15 15 14 15 15 13 12 10 10 10 9 9 9 9 10 10 11 12 12 12 12 12 12 12 11
33 34 34 34 34 34 34 34 33 34 34 33 32 32 31 29 29 29 30 29 28 26 26 27 27 27 27 26 26 25 25 25 24 24 24 25 26 25 24 23 23 23 23 22 21 21 21 21 20 20 20 20 19 19 18 18 17 16 15 15 15 15 14 14 14 14 13 12 11 10 9 9 9 9 10 11 11 11 12 13 13 13 13 12 11
33 34 33 33 34 35 35 35 35 35 35 33 32 32 32 31 30 29 30 30 30 28 27 28 28 28 28 27 26 26 26 26 25 25 25 24 25 26 24 24 24 24 23 23 23 22 22 22 21 21 22 22 21 20 19 19 18 17 17 16 15 14 15 15 14 14 14 14 12 11 11 11 10 10 11 12 12 12 12 13 14 14 13 13 12
34 34 33 33 34 35 36 36 36 35 35 34 32 32 33 33 32 31 30 30 31 30 29 29 29 29 29 28 27 27 27 26 26 26 26 25 25 26 25 24 24 24 24 24 24 23 23 23 22 23 24 24 23 21 20 20 20 19 18 17 16 15 15 15 15 15 15 14 14 13 13 12 12 12 11 11 12 13 13 13 14 14 13 13 13
34 34 33 33 34 35 36 36 35 35 34 34 33 33 33 33 33 32 30 30 31 31 30 30 29 28 28 28 28 28 27 26 26 27 28 27 25 26 26 25 24 23 24 24 24 24 24 23 23 24 25 26 25 23 21 20 19 19 19 17 17 17 16 15 15 15 15 14 14 14 14 13 13 13 12 11 12 13 14 14 15 14 12 12 12
33 34 33 33 33 34 34 33 33 33 33 33 34 34 33 33 32 32 31 30 30 30 30 30 28 28 28 28 29 28 27 27 28 29 29 27 26 26 26 26 26 24 23 24 24 24 24 24 24 24 26 27 28 26 24 22 20 19 18 18 18 17 17 16 15 15 15 15 15 14 14 14 14 14 13 13 13 13 13 13 14 14 13 12 11
32 32 32 32 31 31 32 32 32 33 33 34 35 35 33 32 31 32 32 30 29 29 30 30 28 28 28 28 28 28 28 28 31 33 33 29 27 26 25 26 26 25 24 23 23 24 24 24 24 25 27 28 29 29 28 27 25 22 18 18 18 18 17 17 16 16 15 15 15 15 15 15 15 15 15 14 14 14 13 13 13 13 12 12 10
31 32 32 30 29 30 31 31 32 33 34 34 34 34 33 31 30 31 31 30 29 29 29 30 29 28 28 28 28 28 28 30 34 37 38 35 30 26 25 26 26 26 25 24 23 23 24 24 24 24 27 29 30 31 30 30 30 28 24 21 20 19 18 17 17 17 17 16 16 16 16 16 15 15 15 14 13 13 13 13 13 12 12 12 10
31 31 31 29 29 30 31 30 31 32 33 33 33 32 32 31 30 30 30 30 30 29 29 30 31 29 28 28 28 28 28 32 36 38 40 41 38 31 25 24 25 25 26 25 24 23 23 24 23 22 24 28 29 29 31 31 31 30 29 27 25 23 21 20 18 18 18 18 17 17 17 15 15 15 14 13 12 12 12 11 11 11 12 12 11
29 28 28 27 28 30 29 29 30 31 32 32 31 30 31 32 31 31 30 30 29 29 30 30 30 30 29 28 29 29 28 31 37 40 40 42 42 38 29 24 24 25 25 25 24 24 23 23 22 21 22 26 28 26 26 29 30 31 30 29 29 29 27 26 24 21 20 19 18 18 18 16 15 15 13 12 11 11 11 11 12 12 12 12 11
27 26 27 27 28 28 29 29 30 30 30 30 30 30 32 33 32 30 29 29 28 29 29 30 30 30 30 29 29 29 29 31 35 40 41 41 43 42 35 26 23 23 24 24 24 24 24 23 23 22 21 24 28 26 22 22 24 27 30 31 31 30 30 30 29 27 25 22 20 19 17 17 16 14 12 11 11 11 11 11 11 12 11 11 10
26 25 27 28 29 29 31 31 29 28 28 28 29 29 30 31 31 29 28 27 28 28 28 29 30 30 30 29 29 30 30 32 35 38 41 41 41 42 39 31 25 24 24 24 24 24 25 25 25 24 23 24 28 28 24 21 20 20 24 27 28 26 26 27 28 27 26 24 22 20 18 17 16 14 12 11 11 11 11 11 11 10 10 10 11
27 26 27 29 31 32 32 31 29 28 27 27 28 29 29 30 29 29 28 27 27 27 28 30 30 30 30 30 30 31 31 33 37 38 40 40 40 42 41 35 30 28 25 24 25 25 26 27 26 26 25 24 28 30 27 23 20 19 20 21 22 21 21 22 22 22 22 22 21 20 19 19 17 14 12 11 10 8 8 9 11 11 10 12 12
27 27 28 29 30 31 31 30 28 27 27 28 29 30 30 30 29 29 29 28 28 28 28 29 30 30 31 31 32 32 31 33 38 41 41 40 40 42 42 35 31 30 28 25 25 26 29 30 28 26 25 26 28 30 29 25 22 21 22 21 20 19 19 19 21 20 20 21 21 20 20 20 19 17 16 15 12 10 9 11 12 13 13 11 10
28 28 27 27 27 27 28 27 26 26 28 29 30 30 30 29 28 28 29 29 29 29 28 28 28 29 31 32 33 33 31 33 38 42 43 43 42 43 41 34 31 31 29 27 28 29 30 32 32 29 26 26 29 30 30 28 25 23 23 21 20 20 19 17 18 20 20 21 21 21 21 21 19 18 17 16 13 12 13 14 14 12 12 11 9
28 27 25 24 25 25 26 27 27 28 29 30 30 29 28 27 26 27 28 28 29 28 27 27 28 29 30 32 33 33 32 32 37 41 44 44 44 43 38 32 30 30 29 29 31 32 31 31 34 34 29 26 30 31 31 30 27 25 23 21 21 22 21 18 16 16 16 17 18 18 18 18 15 13 13 13 13 13 13 13 12 10 10 11 11
22 22 22 22 23 24 26 28 29 29 29 28 28 27 26 26 26 27 28 27 27 27 27 28 28 29 29 30 31 32 32 32 34 39 42 44 46 44 37 31 31 32 31 31 31 32 32 31 33 37 34 30 30 31 31 31 29 25 24 24 23 22 21 20 18 15 12 13 14 13 13 12 11 11 12 12 12 13 13 12 11 10 11 12 11
17 19 22 22 23 24 26 27 28 28 27 26 26 27 27 27 27 27 27 26 26 27 28 28 28 27 27 28 29 30 31 32 33 37 41 44 48 47 40 34 33 33 31 32 30 30 33 33 33 36 37 36 35 33 31 32 30 26 26 27 26 23 20 20 20 17 13 13 14 13 13 13 12 12 13 12 12 13 12 12 11 11 11 11 9
17 19 21 22 22 23 24 24 24 24 24 23 23 24 25 25 25 25 25 25 25 26 26 26 25 25 25 26 27 28 29 30 31 34 39 43 48 50 46 42 38 34 31 31 32 32 32 34 34 35 36 38 39 37 33 31 30 29 27 26 25 23 21 19 20 20 16 15 16 14 14 15 14 15 15 14 12 13 13 12 11 11 10 9 7
16 17 19 21 21 21 21 22 21 21 22 22 22 23 23 23 23 23 23 23 23 24 25 25 24 25 24 24 26 28 28 29 31 34 38 41 45 50 50 47 42 38 33 31 32 33 32 32 35 37 36 37 40 41 36 32 31 31 29 26 24 24 23 20 19 20 19 17 16 15 16 17 16 17 16 14 13 14 13 11 11 10 9 7 5
13 15 16 18 19 19 19 20 21 21 21 22 22 23 23 22 22 21 21 22 23 24 25 25 25 25 25 25 27 28 27 27 31 35 39 41 43 47 50 50 47 42 36 32 31 31 31 31 35 39 38 36 39 42 39 33 32 33 31 28 26 26 24 21 19 20 20 18 17 17 17 17 17 16 16 15 13 13 12 10 10 11 9 7 6
11 12 14 16 18 18 18 19 20 21 21 21 21 22 23 21 21 21 20 22 24 24 23 24 24 24 25 25 27 27 26 27 30 34 38 41 43 45 49 51 51 48 42 36 33 32 31 31 33 37 38 36 38 41 39 34 33 35 34 31 28 27 25 22 21 21 21 20 19 19 18 17 16 15 14 14 12 12 13 12 11 11 9 8 8
10 11 13 14 15 17 17 18 18 19 20 21 20 21 22 22 21 21 20 22 23 24 23 23 23 23 25 26 26 26 27 27 28 30 34 38 42 46 49 51 53 53 50 43 37 33 32 32 34 37 37 36 38 41 38 34 34 36 35 32 29 27 25 24 23 23 23 21 21 20 18 17 16 13 12 13 13 14 15 14 12 11 10 9 9
9 10 11 12 13 15 16 16 16 17 19 20 19 19 20 21 20 20 20 20 21 22 23 23 21 21 23 25 25 25 26 27 27 27 30 35 40 45 49 51 52 54 54 50 44 39 34 31 34 37 36 36 39 39 37 35 35 36 35 32 27 25 25 24 24 24 24 23 22 21 19 18 16 14 14 15 16 16 15 14 13 12 10 10 10
7 9 10 10 11 12 13 14 14 15 16 17 17 17 18 19 20 20 20 20 20 21 22 23 23 23 23 23 23 24 24 27 28 26 26 31 37 41 46 51 53 55 56 54 47 41 36 32 33 35 35 36 37 36 35 36 36 37 36 31 25 25 26 25 24 24 24 23 22 22 20 19 18 17 17 18 16 15 15 14 13 11 10 10 11
6 7 8 9 9 10 11 12 13 13 13 14 14 12 11 13 15 17 17 19 19 18 18 18 18 19 20 21 21 21 23 25 27 26 26 31 37 40 44 49 53 56 57 53 42 33 31 33 35 36 37 37 36 33 33 33 33 33 32 29 26 26 27 24 21 23 24 24 22 21 19 19 18 18 18 17 16 15 15 14 12 11 9 10 11
7 7 7 6 6 7 8 9 10 10 11 12 12 10 5 5 8 7 7 10 14 16 16 15 14 13 14 16 18 21 24 26 27 26 27 32 37 40 44 47 50 52 54 52 42 33 30 34 36 37 38 37 36 34 33 32 30 29 30 30 29 29 29 25 22 23 25 25 23 21 20 18 19 19 19 17 16 15 14 13 12 11 10 11 12
8 8 7 6 5 4 4 4 5 7 5 4 6 8 7 4 5 4 3 3 6 9 12 14 15 16 17 19 23 27 31 34 35 34 34 33 34 38 43 46 48 50 52 51 45 37 35 37 37 37 37 35 36 38 37 35 32 31 31 31 29 30 31 30 28 26 25 24 23 21 20 20 20 20 18 17 16 15 14 14 12 12 12 12 12
9 9 9 9 9 8 7 6 4 5 2 1 2 4 5 5 4 1 2 4 5 6 8 11 15 18 21 23 27 31 35 38 39 40 40 38 35 37 43 48 51 52 53 52 44 39 41 42 38 37 37 36 37 40 41 40 37 36 35 34 30 30 33 34 32 30 27 24 23 21 20 21 20 20 18 17 16 15 15 14 13 13 13 13 12
9 9 8 9 10 9 9 9 8 6 5 4 4 3 3 4 6 5 4 3 2 1 3 4 5 7 9 11 14 20 25 30 34 38 41 42 41 41 44 50 53 53 55 52 42 36 41 44 41 40 41 40 41 40 39 39 39 39 39 37 32 29 29 30 30 29 27 25 22 21 21 21 20 19 18 17 16 15 14 13 13 14 14 12 11
11 11 9 9 9 9 9 9 9 9 8 7 7 7 6 6 6 7 6 6 6 3 5 9 11 11 12 12 13 13 15 18 22 28 33 38 39 37 38 44 50 53 57 55 44 37 39 42 42 44 42 40 42 42 40 39 41 40 38 34 30 27 26 26 25 25 24 24 22 21 21 21 20 19 18 17 16 15 14 14 15 14 13 12 11
12 12 10 9 9 10 10 10 9 10 11 10 9 9 9 7 7 6 5 5 6 5 6 9 12 16 19 20 21 21 22 21 19 19 20 23 24 23 24 31 39 45 52 52 44 42 44 42 41 43 42 40 39 39 38 37 38 38 37 34 32 30 29 27 25 22 21 21 22 21 21 20 20 19 18 17 16 15 15 15 15 14 13 12 11
11 10 10 9 9 10 11 11 10 11 12 11 9 9 8 6 6 6 6 7 7 6 5 4 6 12 17 20 22 24 25 25 24 22 20 15 11 10 17 27 32 36 43 44 39 40 43 41 38 36 36 35 34 32 32 32 32 34 35 34 32 31 29 27 25 22 20 20 20 20 20 20 19 18 17 16 15 15 15 14 13 13 13 12 11
11 9 8 8 8 10 11 11 10 10 10 9 8 8 7 6 6 6 6 6 4 4 3 1 3 6 10 14 19 22 22 23 24 25 24 19 13 7 15 24 27 29 34 34 31 31 32 32 34 35 34 35 35 34 32 31 30 30 31 30 29 29 28 26 25 24 21 19 19 19 18 18 18 17 17 16 15 15 14 13 13 12 12 10 10
12 11 10 8 7 8 10 10 10 9 8 8 8 7 6 6 6 6 6 5 4 3 3 3 4 6 7 11 15 17 16 15 18 21 22 18 12 4 9 12 14 20 27 26 25 31 35 34 35 37 38 38 38 37 35 32 29 28 28 26 26 26 26 24 23 23 20 17 17 17 17 17 17 18 17 16 14 14 14 13 13 13 11 11 11
14 13 11 10 10 10 9 9 9 9 8 7 7 6 5 5 6 6 5 5 4 4 3 4 6 8 10 12 14 14 11 10 13 16 19 18 13 8 12 12 10 4 11 13 14 24 36 40 39 39 39 38 37 37 36 32 28 27 27 25 24 25 25 23 21 20 18 16 15 15 16 17 17 17 16 15 14 14 14 13 13 13 12 12 13
13 12 10 10 11 11 10 9 8 8 7 6 6 5 5 4 5 5 5 5 4 4 4 4 6 9 12 14 15 13 10 9 11 13 15 17 20 20 23 30 33 27 19 16 14 17 28 37 39 38 38 37 36 36 35 32 30 29 27 25 24 25 24 21 19 18 16 15 15 15 16 16 16 14 14 14 13 13 13 13 12 13 12 12 11
13 12 10 8 8 9 9 8 7 7 6 5 5 5 5 5 5 5 5 5 4 3 3 4 5 8 10 12 12 11 10 9 10 12 12 12 16 20 25 32 37 35 29 25 22 21 24 30 33 35 37 37 36 34 32 31 31 31 28 26 25 24 21 18 17 17 16 15 15 15 15 14 14 14 14 13 12 12 12 12 12 12 12 12 11
12 12 11 9 9 9 9 9 7 6 6 5 5 5 5 5 5 6 6 5 4 3 3 3 4 6 9 12 13 12 12 11 10 10 12 12 11 14 20 26 32 33 30 26 23 22 23 27 31 34 34 34 34 32 31 30 31 30 28 26 25 22 19 17 17 17 16 15 15 14 14 14 13 13 12 12 12 12 12 12 12 12 12 12 12
12 12 11 11 10 10 9 8 8 7 7 6 6 5 4 4 5 6 6 5 4 3 3 3 4 4 7 11 12 11 11 10 10 10 11 11 11 12 14 18 24 29 30 27 24 25 26 27 29 31 31 31 32 32 31 32 31 30 27 25 22 20 18 17 17 16 15 14 14 13 13 13 13 12 12 12 12 12 12 12 12 13 12 12 12
11 11 11 11 10 10 10 9 8 7 6 5 5 4 3 3 4 5 6 5 4 3 3 3 3 4 5 7 9 9 8 8 7 8 8 9 10 10 11 14 18 24 27 26 25 26 27 27 27 28 28 28 28 29 29 30 30 28 25 23 21 19 18 17 17 16 15 14 14 13 13 13 13 13 13 12 12 11 11 12 13 13 13 12 12
11 10 10 10 10 10 9 8 8 6 4 4 4 3 3 3 3 4 5 5 5 4 3 3 3 4 5 5 6 7 7 6 6 5 6 8 8 9 10 13 16 19 22 23 22 23 25 25 25 25 27 27 26 26 27 28 27 25 23 22 21 20 18 17 16 16 15 14 13 13 13 13 13 13 12 12 12 12 11 12 13 13 13 12 12
10 10 10 9 9 9 9 8 8 7 6 5 5 4 3 4 4 5 5 5 4 3 3 3 3 3 4 4 5 5 6 6 5 5 5 6 7 8 10 12 13 15 18 19 19 20 22 23 23 24 25 26 26 25 26 25 24 23 22 21 20 18 17 16 15 15 14 13 13 13 13 13 13 12 12 11 11 11 12 12 13 13 13 12 11
10 9 9 8 7 7 7 8 8 8 8 8 7 6 5 5 5 5 4 4 3 2 2 3 4 4 4 4 4 4 5 5 5 6 7 7 7 8 9 8 9 12 15 17 18 18 19 20 21 22 24 26 26 26 25 24 23 22 21 20 18 17 16 16 15 14 14 13 12 11 11 12 11 11 12 11 11 11 11 12 12 12 12 12 11
11 10 11 11 10 9 8 8 8 8 7 7 7 7 6 5 5 5 5 4 3 3 3 4 4 4 4 4 4 4 5 5 6 7 8 8 8 8 8 8 9 12 13 14 15 16 16 18 20 23 26 28 28 27 25 23 21 20 19 18 17 18 18 17 15 14 13 12 10 9 10 10 10 10 11 11 11 11 10 11 12 11 11 11 11
14 14 13 14 14 13 12 11 10 9 9 8 8 8 7 5 5 5 6 6 6 5 4 4 3 3 3 4 4 4 5 6 6 6 7 8 8 8 9 9 10 11 11 12 13 14 15 17 21 24 27 29 29 27 24 21 20 19 18 18 19 20 20 18 16 14 14 12 9 8 8 8 8 9 9 10 11 12 11 11 12 11 11 11 11
17 16 16 16 16 15 15 15 15 14 13 12 12 12 10 9 8 8 8 8 7 6 5 5 4 4 4 4 4 5 5 5 6 6 6 6 6 7 7 8 8 9 9 10 10 11 12 14 17 22 25 27 27 25 22 20 19 18 18 20 22 22 22 20 18 16 14 11 8 8 8 8 8 9 10 10 11 12 12 12 12 11 11 11 11
18 18 18 19 18 18 17 17 17 17 17 16 15 15 15 14 13 13 13 11 10 9 8 8 8 7 7 6 6 6 6 5 5 5 5 5 5 5 5 6 6 6 7 8 8 9 10 11 14 16 19 20 20 19 18 18 19 19 20 22 23 22 21 20 19 16 13 10 8 7 8 8 9 10 10 10 11 11 12 12 12 11 11 12 11
Wind_Direction
196 197 198 199 200 200 201 203 205 208 209 208 207 208 208 209 211 211 210 209 208 208 209 210 210 211 214 215 214 213 210 207 206 204 204 208 210 209 211 214 216 214 208 208 210 209 207 207 209 210 210 212 214 213 211 210 210 214 217 218 220 222 220 223 232 238 234 231 236 244 240 232 230 229 223 221 226 225 216 214 220 223 226 228 230
197 197 197 199 200 200 201 201 203 205 208 207 207 208 208 209 210 209 209 210 209 209 210 211 212 212 214 214 213 213 210 207 205 203 203 205 205 207 209 211 214 214 209 209 210 208 207 209 211 212 213 216 217 216 214 212 212 213 215 217 219 221 218 219 227 238 238 228 230 239 234 228 232 226 221 225 225 218 217 219 222 225 229 231 235
196 195 196 199 200 200 200 201 202 204 206 206 207 209 209 209 209 208 210 211 210 210 211 212 212 212 213 213 211 212 210 207 206 204 204 206 206 207 206 207 209 210 210 211 210 208 208 210 212 213 214 216 218 219 217 215 215 216 216 217 220 222 219 219 224 233 240 237 230 231 226 222 227 225 221 227 230 226 225 226 226 229 230 232 239
195 194 196 199 199 199 200 201 202 203 205 207 208 208 209 208 208 209 210 212 212 212 212 213 212 211 212 212 210 210 209 207 208 207 207 210 212 210 207 206 207 208 211 212 211 210 209 210 213 213 213 215 217 218 219 217 216 218 219 218 220 224 222 220 223 229 239 244 236 231 229 223 223 225 222 225 230 231 232 232 230 231 230 231 238
195 195 196 198 198 199 200 202 203 205 206 208 208 208 209 209 209 209 211 212 212 211 212 212 211 211 212 211 209 209 209 208 208 209 210 213 214 213 210 209 209 210 211 213 213 212 211 212 213 211 211 214 216 217 218 218 216 217 219 219 220 223 223 222 223 226 233 242 241 234 231 229 227 223 220 225 231 231 230 232 232 232 232 233 237
194 195 196 197 198 199 200 202 205 206 208 209 210 209 210 210 210 209 210 211 211 210 211 211 211 211 213 212 209 209 210 210 210 211 212 212 213 214 212 211 212 212 212 214 214 214 214 214 214 212 211 212 215 217 217 216 216 217 218 220 219 220 223 223 222 224 229 236 241 238 233 232 231 227 223 226 234 236 234 232 231 230 230 232 235
194 195 196 197 198 199 199 201 203 205 207 208 209 210 210 210 210 210 210 210 210 210 210 210 210 211 212 212 211 210 211 211 211 212 213 213 212 213 212 212 213 213 213 215 215 215 216 216 215 213 212 213 215 217 216 214 215 217 218 219 220 220 221 222 223 225 228 231 236 237 236 233 232 234 232 230 236 242 242 241 238 233 228 228 233
194 195 196 196 198 198 199 200 201 203 204 205 207 208 209 209 209 209 209 209 210 210 210 209 210 211 212 212 212 211 211 212 211 211 213 213 212 213 213 212 212 213 214 215 216 217 217 217 218 217 215 216 216 216 215 213 213 216 216 216 217 220 221 223 224 224 227 231 233 234 235 234 232 235 234 228 232 238 240 244 248 246 237 229 228
195 196 196 197 197 196 196 197 199 200 200 202 205 207 208 209 208 207 208 208 210 210 210 210 209 209 210 211 212 211 211 212 212 213 213 212 212 213 214 214 214 214 214 215 215 216 217 218 220 220 218 219 221 221 218 214 212 213 213 214 215 216 219 222 223 223 227 231 232 231 231 232 230 231 230 227 229 237 240 243 249 251 247 240 234
196 196 197 198 196 192 192 194 196 197 198 200 202 205 207 207 207 207 207 208 208 209 209 209 209 209 209 210 210 210 211 213 216 218 218 213 210 212 214 215 215 215 213 213 214 214 216 219 221 222 222 223 227 227 224 220 219 218 214 212 213 213 215 219 221 222 226 230 232 230 229 230 230 229 230 231 233 239 243 243 244 245 244 246 248
197 197 198 197 191 187 190 192 193 195 197 199 200 202 204 205 206 206 206 207 207 208 207 208 210 210 210 211 211 211 212 216 220 222 223 220 214 211 213 215 215 215 214 213 213 214 215 217 220 222 223 224 228 231 231 228 227 227 224 218 215 214 213 217 222 224 227 231 233 232 232 233 232 230 233 236 237 239 241 241 240 239 239 244 252
198 198 196 192 187 187 189 191 192 194 196 198 199 200 201 204 205 205 205 206 206 207 207 208 210 211 211 213 214 214 215 220 223 224 225 224 220 215 214 216 215 216 216 215 214 214 214 216 218 218 219 223 225 228 232 233 231 231 231 228 225 222 218 219 223 226 230 234 235 236 236 235 236 236 236 238 240 240 240 238 234 233 237 243 248
198 196 193 188 186 188 189 190 192 194 195 196 197 197 199 203 204 205 205 206 206 207 208 210 211 211 212 213 215 217 218 221 224 225 225 226 224 220 216 216 218 217 217 217 215 214 213 213 214 212 215 223 224 221 225 232 232 232 233 232 231 230 228 228 229 229 232 235 238 239 238 237 240 241 240 241 240 235 233 235 232 231 235 238 237
196 193 191 189 188 189 191 193 195 195 195 195 196 198 200 203 205 206 206 206 207 209 210 211 212 213 214 214 216 219 220 221 225 227 227 227 226 223 218 217 220 221 220 219 217 216 214 211 211 210 208 218 224 219 213 219 227 229 230 231 231 231 232 234 234 234 234 236 239 240 239 240 241 243 245 240 231 228 234 240 234 228 232 238 240
197 195 192 191 191 191 194 196 197 197 196 195 197 200 203 204 206 208 209 209 210 211 212 214 215 216 216 217 219 221 222 222 224 227 228 227 227 224 220 218 221 223 221 219 219 220 218 213 212 211 206 211 222 223 213 207 211 217 222 225 225 225 228 230 231 231 231 232 236 238 241 243 243 247 246 231 221 233 245 243 230 222 231 244 245
198 197 195 194 195 195 196 198 198 197 196 195 199 203 205 207 208 208 210 212 213 213 214 216 217 217 217 219 221 224 225 224 224 226 227 227 225 222 219 217 220 223 221 219 221 225 225 219 214 212 208 209 220 226 220 208 204 209 214 217 217 217 221 224 225 224 223 224 228 232 236 239 241 241 230 215 218 234 239 236 229 224 234 244 241
196 197 197 197 198 198 198 198 197 195 195 196 200 204 206 207 207 206 208 211 214 215 215 216 217 217 217 218 220 224 226 225 225 226 226 225 221 218 216 215 219 222 221 221 223 226 228 225 219 213 209 208 217 226 224 212 205 212 216 214 211 212 214 217 218 219 219 218 221 224 229 234 241 243 236 232 236 230 222 232 232 222 227 238 238
197 197 198 197 196 196 196 195 193 193 195 198 202 204 206 207 206 206 208 212 215 216 216 217 218 218 218 219 220 223 225 225 225 225 225 223 219 215 213 212 215 220 221 222 225 227 228 227 223 218 212 209 214 224 225 214 206 211 215 211 210 211 206 199 202 212 218 220 223 226 231 237 245 248 244 242 239 224 219 232 234 223 226 239 247
200 199 198 195 193 192 192 193 193 195 197 201 203 204 205 206 207 207 210 214 217 218 219 220 221 221 221 222 222 224 226 227 227 225 224 223 219 213 209 209 212 216 219 221 224 227 227 226 224 221 216 211 213 220 223 215 206 208 211 210 209 211 205 191 186 195 207 214 219 223 229 234 237 235 235 237 230 217 216 226 234 234 238 251 260
201 199 197 194 192 191 191 194 197 199 200 201 203 204 205 207 208 209 212 214 216 218 218 220 222 223 224 224 224 224 226 229 230 227 224 223 220 213 206 207 211 212 215 219 220 223 224 223 224 223 219 214 213 218 221 216 207 203 207 210 210 208 205 197 188 185 189 197 201 204 208 212 212 213 222 228 218 208 206 214 226 238 246 255 260
196 193 193 193 193 192 195 198 199 201 202 202 203 204 205 207 208 209 212 214 215 216 218 220 224 225 226 226 226 226 226 228 230 230 226 223 220 214 208 208 211 209 210 215 217 219 220 219 221 222 219 215 214 216 218 215 208 202 204 210 211 206 200 193 186 186 190 189 188 191 195 197 200 204 207 205 199 197 201 210 223 236 244 249 247
190 186 187 191 194 196 199 202 201 202 203 203 203 205 208 209 210 211 213 215 216 217 219 221 225 228 228 229 229 231 231 230 231 232 229 225 222 217 212 213 213 208 207 212 215 216 217 216 216 217 216 214 213 214 215 212 206 202 202 207 210 203 194 182 175 180 190 187 184 190 194 193 196 196 194 193 195 196 200 209 219 227 232 234 232
184 181 184 190 195 197 200 200 199 201 203 201 201 205 208 210 212 212 213 217 221 224 225 226 229 232 234 234 235 237 238 237 235 235 232 228 225 222 219 219 218 213 211 212 213 213 213 212 212 213 214 213 211 212 211 208 204 200 199 202 205 197 188 178 170 176 188 188 186 192 193 193 197 197 195 197 198 194 198 208 212 211 213 208 200
180 182 186 190 194 198 199 199 199 201 202 201 202 207 210 210 212 214 214 219 227 230 230 231 233 236 238 240 241 240 239 238 237 237 234 230 226 224 224 224 221 217 217 219 218 216 215 212 209 209 211 212 210 209 208 204 200 197 195 198 198 191 184 179 171 176 188 188 186 193 195 196 201 201 199 203 199 187 187 196 195 194 198 200 199
182 187 190 192 195 198 199 199 200 201 202 202 202 206 209 209 212 214 213 220 228 231 230 231 234 237 239 241 242 240 238 237 238 238 237 232 228 227 227 226 223 220 219 222 224 223 220 215 209 207 208 209 208 205 202 199 196 194 193 194 192 186 184 182 175 178 188 187 187 193 195 195 202 203 199 199 193 175 171 179 184 187 192 200 209
185 190 194 193 195 197 197 199 201 201 202 204 205 207 209 210 212 213 213 218 226 231 233 233 234 237 240 241 242 243 242 240 238 239 237 231 228 228 227 226 224 222 220 222 225 225 223 217 209 205 205 206 203 199 195 192 192 192 192 192 189 182 181 180 176 180 186 186 187 192 191 191 197 195 182 180 179 173 171 175 179 186 197 210 221
187 190 194 195 196 198 199 200 201 201 202 206 209 210 211 212 213 213 213 218 226 232 234 234 234 236 239 242 244 244 244 242 239 237 232 226 225 226 226 224 224 222 221 221 221 222 224 217 207 204 204 201 197 194 190 188 189 190 190 190 187 181 179 180 179 182 187 185 185 188 189 186 183 178 175 179 179 175 175 178 183 193 206 219 232
187 186 191 194 194 198 201 200 202 204 205 207 213 215 215 218 219 219 219 222 226 232 234 235 236 239 243 247 248 247 248 247 244 239 231 225 224 223 223 224 223 221 220 220 218 219 220 211 199 196 194 188 184 184 184 183 185 186 186 186 185 181 180 182 184 186 187 185 183 183 182 176 173 177 185 187 182 178 179 182 192 206 214 219 233
161 166 177 182 183 188 195 199 204 208 208 208 212 216 221 225 226 226 226 227 230 236 242 243 243 244 248 251 253 253 253 253 252 249 242 237 231 226 225 226 224 222 222 221 217 215 207 193 183 180 177 174 172 172 174 175 178 182 183 182 180 178 178 181 184 186 186 186 183 177 170 166 171 182 188 185 181 181 182 185 193 203 209 219 236
124 136 147 152 159 174 186 192 196 202 210 213 206 196 200 231 233 226 221 223 228 236 245 252 254 259 267 265 261 259 258 259 260 257 253 251 245 236 233 232 228 224 222 218 214 209 196 181 174 172 172 170 168 168 169 171 173 177 180 180 178 176 176 179 183 185 186 185 180 172 167 168 176 185 186 184 182 183 184 189 195 197 203 222 238
111 113 114 104 93 115 147 159 170 184 208 226 190 167 158 182 215 229 230 235 244 247 253 259 263 269 276 276 272 269 266 265 265 263 261 262 257 247 240 236 230 225 219 213 208 201 189 177 172 173 174 174 171 169 169 171 172 172 174 177 180 178 176 179 183 185 186 184 178 173 174 178 181 185 186 184 185 186 184 190 201 206 211 226 239
105 100 100 93 82 87 103 108 130 163 169 85 153 166 164 154 142 154 260 275 288 274 262 266 266 265 268 271 273 274 273 270 270 268 267 267 264 255 247 239 231 224 218 211 205 194 183 176 174 175 177 178 175 172 171 171 170 168 170 174 179 180 179 179 181 183 184 183 178 174 177 181 182 185 188 186 189 191 185 188 207 219 222 229 235
91 88 90 92 88 90 100 101 105 124 134 138 154 176 196 171 134 117 134 146 137 213 268 297 291 280 285 292 293 291 287 284 280 275 271 267 262 258 254 245 234 223 212 205 200 191 182 179 179 181 182 180 176 173 173 171 167 165 168 171 175 180 182 180 179 180 180 179 177 176 179 181 183 186 188 187 192 198 195 196 212 222 225 229 229
79 77 79 92 98 98 101 105 108 110 109 110 115 118 124 130 123 119 123 118 114 99 36 40 55 58 47 34 19 357 336 318 301 287 277 270 264 264 263 252 238 223 210 204 199 190 184 183 182 183 182 179 174 172 172 171 166 164 165 166 167 173 178 179 182 184 180 177 178 178 178 181 185 187 188 190 196 204 207 208 214 220 223 226 225
79 77 74 82 93 98 100 104 111 115 113 109 105 106 108 103 95 90 76 70 85 87 56 50 57 54 46 38 28 18 10 2 350 332 310 288 276 274 267 249 233 218 208 204 198 190 187 187 184 181 178 174 171 169 167 167 165 162 161 161 163 168 172 177 183 186 181 179 181 179 178 183 188 189 191 197 201 206 211 214 217 218 218 220 223
77 78 75 77 87 96 98 98 103 113 117 111 100 96 99 94 84 78 66 60 70 78 69 49 41 39 35 30 25 24 24 24 22 17 6 344 313 276 243 230 222 212 207 206 201 193 188 184 178 172 167 162 158 155 155 158 159 159 159 160 163 166 170 174 180 185 186 184 180 176 178 186 192 192 196 203 206 208 212 215 216 214 213 217 220
68 70 74 78 88 95 94 92 97 105 106 99 93 93 92 86 81 79 76 76 84 93 86 23 359 20 21 16 15 20 27 32 34 30 20 8 351 298 233 226 222 213 208 207 201 189 177 168 162 157 151 147 145 145 148 153 155 156 158 160 162 165 168 172 180 186 187 182 177 177 182 190 193 195 203 209 208 206 208 210 211 212 210 207 208
61 63 70 79 88 95 94 93 98 104 102 95 94 95 94 93 96 97 94 91 94 99 85 39 18 20 13 2 2 5 10 20 30 31 24 13 360 304 221 229 242 230 217 211 197 177 162 152 148 146 142 142 144 145 147 151 151 152 156 159 162 165 167 170 177 183 181 176 175 180 186 191 196 202 211 213 206 200 202 205 208 209 201 195 206
67 70 76 79 79 85 94 99 102 106 108 105 102 104 107 105 105 107 103 94 85 75 61 39 28 23 11 355 350 354 3 16 28 34 37 41 50 95 126 97 50 322 225 206 185 164 148 139 137 138 138 141 143 143 144 148 150 153 157 158 160 164 166 167 172 175 174 173 177 184 192 200 204 206 209 206 198 195 199 203 207 208 203 200 208
70 73 80 85 88 94 103 108 107 104 103 106 108 110 108 96 88 92 94 89 86 78 56 37 30 22 9 359 354 356 7 23 29 29 38 55 67 80 94 90 77 66 68 79 85 101 114 120 127 134 136 137 138 140 144 148 152 156 160 160 160 163 166 168 168 170 172 179 187 193 198 201 200 197 198 199 198 198 200 202 205 207 208 207 207
74 75 79 88 99 104 101 96 93 90 91 100 108 111 111 102 90 91 95 93 91 83 48 33 35 27 16 14 20 25 26 27 31 31 30 44 66 77 87 94 94 89 84 86 89 94 103 114 124 131 134 137 141 146 149 152 155 158 161 163 164 165 166 166 167 169 173 181 187 190 190 187 186 189 194 197 199 198 198 200 202 205 209 213 212
78 78 77 76 79 84 83 80 78 76 77 86 92 95 103 106 98 95 96 92 86 73 38 27 44 44 34 33 42 50 45 31 29 40 39 33 44 68 82 94 104 109 111 113 118 124 126 128 131 134 138 144 149 153 155 157 157 159 161 162 163 162 161 161 164 167 171 176 180 182 183 182 185 192 195 195 196 196 197 201 204 205 208 212 212
74 76 77 75 72 73 75 75 73 69 65 68 72 73 80 96 105 108 108 100 88 72 43 28 35 43 39 37 41 48 50 40 31 35 44 45 43 48 63 85 107 119 125 130 140 149 148 142 140 143 147 152 155 157 158 159 159 160 162 162 160 158 158 159 162 165 170 174 177 180 182 183 186 191 194 193 195 197 200 204 208 209 211 212 210
66 68 72 72 69 68 68 67 67 70 74 81 85 87 97 113 120 120 116 106 89 74 59 46 36 30 31 39 44 46 51 54 46 37 42 54 59 54 57 78 104 120 129 135 145 151 149 142 140 142 148 153 156 157 158 159 160 160 159 158 157 157 158 160 163 166 171 175 177 179 183 185 187 192 194 194 196 202 204 206 208 211 213 214 213
55 58 63 65 63 62 62 59 56 59 66 82 89 91 98 105 101 99 102 101 93 83 79 74 58 41 35 42 53 57 59 61 65 62 56 56 64 74 83 90 103 118 129 135 140 143 144 144 145 145 148 153 156 158 161 162 161 159 158 157 157 157 158 159 163 167 171 175 178 181 186 188 190 194 196 195 198 205 209 208 209 212 214 215 216
47 49 53 57 57 56 53 49 46 44 44 46 52 58 66 71 70 68 73 84 99 108 102 83 59 43 40 46 54 66 76 76 71 72 72 68 76 94 105 109 112 119 127 134 139 142 147 153 157 157 156 158 160 161 162 161 159 159 160 159 157 156 157 159 162 166 171 177 182 185 188 191 194 198 200 199 201 206 212 213 210 210 212 215 219
45 46 46 47 48 49 49 45 42 41 42 41 38 37 42 52 63 71 77 89 101 98 84 75 61 40 33 46 53 58 71 83 88 90 89 90 99 108 112 115 118 122 129 138 146 149 152 158 163 164 164 164 163 161 159 156 156 158 159 157 155 156 158 160 163 166 172 178 184 187 189 193 197 200 201 203 206 209 212 214 213 211 212 216 221
48 48 45 41 39 36 36 35 34 36 40 43 40 35 32 37 49 58 65 74 75 59 50 63 67 48 30 36 48 54 55 62 77 91 95 97 103 109 111 114 122 127 132 139 146 150 154 159 165 167 168 167 165 162 159 155 155 156 156 156 158 161 161 160 163 167 170 174 180 186 189 196 203 203 201 205 212 215 215 215 216 217 217 220 223
52 51 49 46 44 41 37 36 34 31 32 39 43 41 37 36 39 39 41 47 52 48 44 49 52 44 39 41 44 53 59 58 60 75 90 98 103 108 112 118 126 131 134 138 146 152 158 164 169 171 170 169 167 164 160 157 156 157 157 160 165 168 166 163 164 169 171 172 177 187 192 199 208 210 206 208 214 219 219 219 220 222 222 222 221
53 53 51 49 47 45 44 43 40 36 34 38 42 40 37 41 42 37 36 42 44 38 36 41 41 36 42 50 53 56 60 59 58 66 81 93 99 105 110 115 120 125 130 138 145 152 156 162 167 169 169 169 168 166 164 162 161 160 162 167 170 172 173 172 174 177 177 174 178 190 196 201 209 212 209 210 214 219 222 223 224 225 223 221 217
51 52 52 50 47 45 43 42 42 40 39 40 43 42 39 39 40 37 35 38 39 34 30 33 37 35 33 36 42 48 52 55 57 60 64 75 89 97 103 108 114 120 129 137 142 146 150 155 160 163 165 167 167 167 168 168 168 170 174 175 174 174 178 183 185 186 185 181 183 193 199 201 205 207 207 209 213 217 220 223 225 225 223 220 216
Height
743 747 750 754 757 759 763 766 770 773 776 778 780 782 785 787 789 791 793 795 796 798 799 800 802 804 805 808 809 811 812 814 816 817 819 821 822 824 826 828 829 830 831 832 833 834 835 837 838 839 840 841 841 842 843 844 845 846 847 848 848 849 850 850 850 849 850 851 851 852 852 853 854 855 855 856 855 856 856 857 857 857 857 857 857
737 741 744 748 751 754 758 761 764 768 771 773 775 778 780 782 785 787 789 790 792 793 795 796 798 800 802 804 805 807 809 810 812 813 815 817 818 820 822 824 826 827 828 829 830 832 833 834 835 836 837 838 839 840 841 842 843 843 844 845 846 846 847 848 848 848 848 849 850 851 851 852 852 853 854 854 854 854 855 855 856 856 856 856 856
730 735 739 742 745 749 753 756 759 762 765 767 770 773 775 777 780 782 784 786 788 789 791 792 794 795 797 800 801 803 805 807 809 810 811 813 814 816 818 819 822 823 824 826 827 829 830 831 832 833 835 836 837 838 838 839 840 841 841 842 843 844 845 846 846 847 846 847 848 848 849 850 850 851 852 852 853 853 853 854 854 854 854 854 855
725 729 732 736 740 744 747 750 753 756 759 762 764 767 770 773 775 776 779 781 783 785 786 788 790 791 793 795 797 799 801 803 805 806 807 809 810 812 814 815 817 819 821 822 824 825 826 827 829 830 832 833 834 835 836 836 837 838 839 840 841 842 843 844 845 845 845 845 846 846 847 847 848 849 850 850 851 851 851 852 852 852 852 852 853
719 723 727 731 735 738 741 745 748 750 753 756 759 762 765 767 770 771 773 776 778 780 782 783 785 786 788 791 793 795 797 799 801 802 804 805 806 808 810 811 813 814 816 818 820 822 823 824 825 827 829 830 831 832 833 834 835 836 837 837 838 840 841 842 843 843 844 844 844 845 845 846 846 847 848 848 849 849 849 850 850 850 850 850 850
713 717 721 725 729 732 735 739 742 745 748 751 754 757 760 762 764 766 768 770 773 775 777 778 780 782 784 786 789 791 793 795 796 798 800 801 803 804 806 807 809 810 812 814 816 818 819 820 822 823 825 826 827 828 829 831 832 833 834 835 836 837 838 839 840 841 842 842 842 843 843 844 844 845 845 846 847 847 847 847 847 847 847 847 848
707 711 715 718 722 725 728 732 735 739 742 746 749 752 754 756 758 760 762 765 767 769 771 773 775 777 780 782 784 787 788 791 792 794 796 797 799 800 802 804 805 806 808 810 812 813 815 816 818 819 820 821 823 824 826 827 828 829 831 832 833 834 835 836 837 838 839 839 840 840 840 841 841 842 842 843 844 845 845 845 844 844 845 844 845
702 705 709 712 715 718 722 726 729 733 737 741 744 747 748 751 753 755 758 760 762 764 766 768 770 773 775 777 780 782 784 786 788 789 791 793 795 796 798 800 801 802 804 805 807 809 811 812 814 815 816 817 818 820 822 824 825 826 827 829 830 831 832 833 834 835 836 836 837 837 837 838 838 838 839 840 841 842 842 842 842 842 842 842 842
697 701 704 706 709 713 717 721 725 729 732 735 739 741 743 746 748 751 753 755 757 759 762 764 767 768 771 773 775 777 780 781 782 784 786 788 791 792 794 796 797 798 800 801 803 805 806 808 809 810 811 812 814 816 818 820 821 822 824 825 827 828 829 830 831 832 833 833 833 834 834 834 834 835 835 836 837 838 839 840 840 840 840 839 839
693 696 699 701 705 709 713 717 720 723 727 729 732 735 738 742 744 746 748 750 752 755 758 760 762 764 766 768 770 772 774 775 776 778 781 784 786 788 790 792 793 794 796 797 798 800 801 803 804 806 807 809 810 812 814 816 817 819 821 822 823 824 825 827 827 828 829 829 829 830 830 830 830 831 831 832 833 835 836 837 837 838 838 837 837
689 692 695 698 702 705 708 712 714 717 721 724 727 730 734 737 740 742 744 746 748 751 753 755 757 759 761 763 765 767 768 769 771 773 776 779 782 784 786 787 789 790 791 792 794 795 797 799 800 802 803 805 806 808 810 812 813 815 817 818 819 820 822 823 824 825 825 825 826 826 826 826 826 827 828 829 830 831 833 834 835 835 836 835 835
685 688 690 695 698 700 704 707 710 713 716 719 722 726 730 733 736 738 739 742 744 746 748 750 752 754 756 758 760 761 762 763 764 767 770 773 776 779 781 783 784 785 787 788 789 791 792 794 796 797 799 800 802 804 805 807 809 811 813 814 816 817 818 819 820 820 821 822 822 823 823 823 824 824 825 826 827 828 830 831 832 833 833 833 833
682 685 688 692 694 696 700 703 706 708 711 714 718 722 726 728 730 733 735 737 740 742 744 746 747 750 751 753 754 756 757 757 758 761 764 767 770 774 777 779 780 781 782 784 785 786 788 790 791 793 794 795 798 800 801 803 805 807 809 810 812 813 814 815 816 817 818 819 819 820 821 821 822 822 823 824 825 826 827 828 829 830 831 831 830
679 682 685 688 690 693 696 699 701 704 707 711 715 718 721 723 725 729 731 734 736 737 740 742 743 745 746 748 749 750 751 752 753 755 758 761 765 769 772 775 776 777 778 780 781 782 783 784 786 788 789 791 793 796 798 799 801 802 804 806 807 808 809 810 812 813 815 816 816 817 818 819 820 820 821 822 823 824 825 825 827 828 829 829 829
675 678 680 682 685 688 691 694 697 701 705 709 712 714 717 719 722 725 728 730 732 734 736 738 739 740 742 743 744 745 746 747 748 750 753 757 760 764 768 771 772 773 774 775 776 778 779 780 781 782 784 785 787 790 793 795 797 798 800 801 802 803 804 805 807 809 811 812 814 815 816 817 818 819 820 820 821 822 823 823 825 826 827 827 827
670 673 675 676 679 681 684 688 692 696 701 705 707 710 713 715 718 721 724 726 728 729 731 732 733 735 737 739 739 739 740 742 743 744 748 752 756 760 763 765 767 767 768 769 771 773 774 775 775 777 778 780 781 784 788 791 793 795 796 797 799 800 801 802 803 805 807 809 810 812 813 814 815 816 817 818 819 820 821 822 823 825 826 825 824
664 666 668 670 673 677 681 685 689 693 696 699 701 704 706 709 713 716 718 721 722 723 725 726 728 729 731 732 733 733 734 736 737 739 742 745 750 753 756 759 760 761 763 764 766 768 769 770 771 771 773 774 776 778 782 786 789 791 793 794 795 796 797 798 800 802 804 805 807 808 810 811 812 814 815 816 817 818 820 821 821 823 824 823 822
658 659 662 666 670 674 678 682 686 689 691 693 696 698 701 705 708 711 713 715 717 718 720 721 723 723 724 724 725 726 728 729 730 732 735 738 742 745 749 752 754 755 757 759 761 762 763 764 766 767 767 768 770 773 777 781 784 786 789 790 792 793 793 794 796 798 800 802 804 805 807 809 810 811 812 813 814 816 818 818 819 820 821 820 819
652 655 659 664 668 671 675 679 681 684 686 688 691 694 698 702 704 707 709 710 712 714 716 717 718 718 718 719 720 721 723 724 724 726 729 732 736 739 743 745 747 749 751 753 755 756 757 758 759 762 763 764 765 768 772 775 779 782 785 786 788 789 789 791 793 795 798 800 801 803 805 806 808 809 810 811 812 813 815 816 817 818 819 818 817
651 655 659 662 665 668 671 674 676 679 681 684 687 691 694 697 699 702 703 705 707 709 710 711 712 712 713 715 716 717 718 719 720 721 724 727 730 734 737 738 739 741 744 746 747 749 750 752 752 755 758 760 761 764 767 770 773 777 780 782 783 784 786 788 790 792 795 798 800 801 803 805 806 808 809 809 810 811 813 815 816 817 817 817 816
651 654 657 659 662 665 667 670 672 675 678 681 684 687 689 691 694 696 698 700 702 703 704 705 706 708 709 710 711 712 713 715 715 716 718 720 723 727 730 730 731 733 736 738 739 740 742 745 746 747 751 754 756 759 762 765 769 773 775 777 779 781 783 785 786 790 794 796 797 800 802 803 805 806 808 808 809 810 811 813 814 815 816 816 816
649 651 654 657 660 663 665 668 670 674 677 679 682 684 686 688 691 692 695 697 698 699 701 702 703 704 705 706 707 708 709 711 712 712 714 715 717 720 721 722 724 727 729 729 730 732 734 736 738 740 743 747 750 753 757 761 765 768 771 774 777 779 780 782 783 787 791 793 795 797 799 801 802 804 805 806 806 807 809 811 812 814 816 816 816
648 650 653 655 658 660 663 666 669 671 674 676 679 682 684 686 688 690 692 694 696 698 699 700 701 701 702 703 704 705 706 708 709 708 709 711 714 715 716 718 721 724 723 722 723 725 727 729 731 733 737 741 744 748 752 756 760 763 767 771 774 775 778 779 781 784 787 789 791 794 796 798 799 800 801 802 803 804 806 808 810 813 814 815 816
647 649 651 654 656 659 661 664 666 668 671 674 676 679 681 683 686 687 689 692 694 695 696 697 698 698 698 699 700 701 702 703 703 702 703 705 708 710 713 716 719 721 721 720 720 721 723 724 725 727 732 736 739 743 746 751 755 759 763 767 770 772 775 777 778 780 783 786 788 791 793 795 796 797 798 800 800 801 803 806 809 811 813 814 815
646 648 650 652 654 657 659 661 664 666 668 671 673 675 678 680 682 684 686 689 691 691 692 693 693 694 694 694 695 696 697 698 698 697 696 699 702 704 707 709 712 715 716 717 717 718 720 722 722 724 728 732 736 740 743 747 751 755 759 763 766 769 772 773 774 777 780 782 785 788 790 792 795 796 797 798 799 799 801 804 807 809 811 813 814
646 647 649 651 653 655 657 659 662 664 666 668 670 672 674 676 678 680 682 684 686 687 687 688 689 690 690 690 690 691 692 693 693 692 692 694 695 696 698 700 704 707 710 712 714 716 717 718 719 721 725 729 733 736 740 744 748 752 756 759 762 764 766 768 771 773 775 778 782 784 787 790 793 795 796 797 798 799 800 803 805 807 809 811 812
645 647 648 650 652 653 655 657 659 661 664 666 667 669 671 672 674 676 678 679 681 682 684 685 686 686 686 686 687 688 688 688 688 688 687 688 690 692 694 697 701 704 705 707 709 712 713 714 715 718 722 726 730 734 738 742 746 750 753 757 759 761 762 764 768 771 772 774 777 780 783 787 789 792 794 797 797 797 798 800 803 804 806 808 810
645 646 647 649 650 652 654 656 657 659 661 663 665 666 668 669 671 672 674 675 676 678 679 681 682 682 683 683 683 684 684 683 684 684 684 684 686 689 691 694 696 698 699 700 703 707 709 710 712 716 719 723 727 731 735 738 742 746 749 753 757 759 760 763 767 769 770 772 773 776 779 783 785 789 793 795 795 795 796 798 800 801 803 805 806
645 646 647 648 649 651 652 654 656 657 658 661 663 664 665 666 668 670 671 672 674 676 677 678 680 680 680 680 680 680 679 679 679 681 681 679 680 682 684 685 688 691 694 698 703 706 706 706 708 712 716 719 722 726 730 734 739 744 748 751 754 755 757 761 765 767 768 769 770 772 775 779 783 787 790 791 792 792 794 796 798 799 801 802 803
647 647 648 649 649 650 651 652 654 656 657 658 660 662 664 666 667 669 670 671 673 676 677 678 679 679 679 679 678 677 676 675 676 678 678 677 675 676 677 678 681 684 688 693 698 701 701 703 705 709 712 714 715 718 724 729 733 739 744 748 750 751 752 757 762 765 767 767 768 769 772 777 781 784 786 787 789 790 791 794 796 797 799 800 800
649 650 651 652 651 651 651 652 654 656 657 657 658 661 664 666 668 669 670 672 674 676 677 678 678 678 678 677 676 674 673 673 673 674 675 674 673 673 672 672 674 677 680 684 688 691 693 697 700 704 708 709 708 710 715 720 726 731 737 744 747 747 748 751 756 762 765 766 765 766 769 774 778 781 782 784 785 786 789 792 794 795 796 797 797
650 651 652 653 653 653 654 655 656 658 658 659 660 662 664 666 668 670 671 672 674 675 676 676 676 676 676 675 673 671 670 669 669 668 668 669 669 667 666 664 665 668 672 675 678 680 684 689 694 697 699 701 702 703 706 710 715 721 729 737 743 745 745 746 750 757 762 763 762 763 767 772 775 778 779 781 782 783 786 788 791 792 793 793 793
652 652 653 654 655 655 656 657 658 659 660 661 662 663 664 666 668 670 671 672 674 674 675 675 675 674 674 674 673 670 668 666 664 662 660 660 660 659 659 657 657 660 664 667 669 670 672 676 680 684 687 689 692 696 701 704 707 713 722 730 737 744 747 748 750 755 758 759 760 762 765 769 773 775 776 778 779 780 782 785 787 789 789 790 790
654 655 655 656 656 657 657 658 659 660 661 662 663 665 666 667 668 670 671 671 673 674 675 675 675 674 674 673 671 668 665 662 658 654 652 650 650 651 653 654 655 654 654 655 657 659 661 662 663 667 674 679 683 688 696 701 703 708 716 725 733 742 748 751 754 756 756 755 758 761 763 767 770 772 773 774 775 777 779 781 783 784 785 786 787
657 658 658 658 658 658 659 659 660 660 661 663 664 666 667 669 670 671 671 672 673 674 675 675 675 674 672 671 668 666 662 657 653 649 645 643 643 644 647 649 650 649 646 644 645 646 648 650 652 655 662 670 677 683 691 698 702 706 712 720 728 737 743 748 753 756 755 755 756 758 761 765 767 769 770 771 771 773 776 777 779 780 782 784 785
659 660 661 661 661 661 661 661 661 662 663 664 665 667 668 670 671 672 672 673 674 675 675 676 675 674 672 670 668 665 661 656 652 648 643 639 638 638 639 640 641 642 641 639 639 639 640 644 650 656 660 666 674 681 690 698 704 707 712 718 725 733 739 745 751 755 756 756 756 757 760 763 765 767 768 768 769 771 773 774 776 778 780 782 783
662 663 664 665 665 664 664 665 665 665 665 666 667 668 670 671 672 673 674 675 676 676 676 676 675 674 673 671 669 665 662 658 654 650 645 640 636 633 634 635 636 637 638 638 638 639 641 644 650 657 663 667 673 680 690 699 705 709 714 720 727 732 737 743 748 753 755 755 754 756 759 761 763 765 765 765 766 768 770 772 774 776 778 780 781
666 667 667 668 668 667 667 668 668 668 668 668 669 670 671 672 674 675 676 676 677 676 676 676 675 675 674 672 670 667 664 660 657 653 649 644 638 634 634 636 638 640 641 641 639 638 638 643 650 655 661 667 673 680 690 700 706 712 718 724 729 733 737 742 748 751 752 752 753 755 758 760 761 763 763 763 764 766 768 770 772 774 776 778 780
670 670 670 670 670 670 671 671 671 671 671 671 671 672 673 674 674 675 676 676 676 676 676 676 676 675 675 673 671 668 665 663 661 658 655 650 644 639 635 634 637 641 643 644 643 638 633 637 647 654 659 667 675 681 690 699 707 714 720 726 730 734 738 742 746 748 749 750 752 754 757 758 759 760 761 762 763 765 766 768 769 771 773 776 778
671 672 672 672 673 673 673 673 673 673 673 673 674 674 675 675 675 675 676 677 677 677 677 677 677 677 677 675 672 670 668 666 664 662 660 656 652 647 639 631 631 640 647 651 653 649 641 641 650 658 663 670 677 684 691 699 706 714 720 724 729 733 738 741 744 745 747 749 751 753 756 757 758 759 760 761 762 763 764 766 768 769 771 773 774
673 674 674 674 674 674 674 674 675 675 676 676 676 676 676 677 677 677 677 678 679 679 679 679 679 679 678 676 674 672 671 670 668 666 664 662 659 655 648 638 633 641 652 660 665 665 662 660 663 667 669 675 681 688 695 701 706 712 718 723 728 733 737 740 742 744 746 748 751 752 754 756 757 758 760 760 761 762 763 764 766 768 770 771 773
674 675 675 675 675 674 674 676 676 677 677 677 677 677 677 677 678 679 679 680 680 680 680 680 680 680 679 677 675 674 673 673 672 670 668 667 664 661 657 650 644 645 654 663 671 677 677 675 673 673 676 681 686 691 697 702 707 712 718 723 728 733 736 738 741 743 745 748 750 751 753 755 756 757 758 759 760 761 761 763 764 766 768 770 771
675 676 676 676 676 675 676 676 677 678 678 678 679 680 679 679 679 680 681 682 682 681 681 681 680 681 680 679 678 677 676 676 676 674 672 671 670 667 665 661 656 654 657 664 673 679 681 679 678 679 682 686 690 694 699 703 708 713 719 723 728 731 734 737 739 742 744 747 749 750 752 753 755 756 757 758 759 759 760 761 763 764 766 768 769
677 677 677 677 677 677 677 678 678 679 679 680 680 681 681 681 680 680 681 682 682 682 682 681 681 681 681 680 680 680 680 679 679 678 677 675 674 673 672 670 666 664 665 669 675 679 680 681 682 684 687 692 696 699 702 706 710 714 719 723 727 730 733 736 738 740 743 745 747 749 751 752 753 755 755 756 757 757 758 760 761 763 764 766 766
679 679 679 678 678 678 679 679 679 680 680 681 681 682 682 682 682 681 681 682 682 682 682 682 681 681 681 681 681 681 682 682 681 681 680 679 678 678 678 678 677 674 674 676 679 681 682 684 686 689 691 695 699 702 705 708 712 716 720 723 727 730 732 735 737 740 742 744 746 748 749 750 751 752 753 754 755 756 756 758 760 761 763 764 764
682 682 681 681 681 680 680 681 681 681 681 682 682 682 683 683 683 683 682 682 683 683 682 682 682 682 681 682 682 682 683 683 684 683 682 682 682 682 682 683 683 682 681 682 684 685 686 688 690 692 694 697 701 704 707 711 714 718 721 724 727 729 732 734 737 739 741 743 745 746 747 748 749 750 751 752 753 754 755 756 758 760 761 762 763
685 685 684 683 683 682 682 682 682 682 683 684 685 684 684 684 684 684 684 684 684 684 683 682 683 683 682 682 682 683 683 684 684 684 684 684 684 684 685 685 685 685 685 686 688 688 689 691 693 694 697 700 703 706 709 712 715 719 722 725 727 730 732 734 736 739 741 742 744 745 746 747 748 748 749 751 752 753 754 756 757 759 760 761 761
689 689 688 688 687 685 685 684 685 685 685 686 687 687 687 686 686 686 686 685 685 685 684 684 684 684 684 683 682 682 683 684 684 684 685 685 686 687 687 687 687 688 689 690 691 692 693 694 695 697 699 702 704 707 710 714 717 720 722 725 727 729 731 734 736 738 740 742 743 744 744 745 746 747 748 750 751 753 754 756 757 758 759 760 760
693 693 693 693 692 691 690 689 689 689 689 689 690 690 690 689 689 688 688 688 687 687 686 686 686 685 685 684 683 683 683 683 684 685 686 686 687 688 689 690 690 691 691 693 694 695 696 696 697 699 701 703 706 709 711 714 717 720 722 725 727 729 731 734 736 737 739 740 741 742 743 744 745 746 748 750 751 753 754 755 756 757 758 758 758
698 697 697 697 696 696 695 694 694 694 694 693 693 694 693 692 691 691 691 691 691 690 689 689 688 688 687 686 686 685 684 684 685 686 687 687 688 689 690 691 692 692 693 694 695 696 697 698 699 701 703 705 707 710 713 715 718 720 722 724 726 728 731 733 734 735 737 738 739 741 742 743 744 746 747 749 751 752 754 755 756 756 756 756 756
701 701 701 701 700 700 700 699 699 699 699 698 698 698 697 696 695 695 694 694 693 693 693 692 692 691 691 690 689 688 687 686 686 687 688 689 689 690 691 692 693 693 694 695 696 697 699 700 702 704 705 707 709 712 714 716 718 720 721 723 726 728 730 731 733 734 736 737 738 739 741 742 744 745 747 749 750 751 753 754 755 755 755 755 755